�������l�o���
Date,Time,MP-1(��Sv/h),MP-2(��Sv/h),MP-3(��Sv/h),MP-4(��Sv/h),MP-5(��Sv/h),MP-6(��Sv/h),MP-7(��Sv/h),MP-8(��Sv/h),����,����(m/s),���J
2022/04/19,00:00,0.552,0.813,0.528,0.985,0.688,0.340,0.578,0.554,��,2.0,��
2022/04/19,00:10,0.553,0.813,0.529,0.987,0.690,0.342,0.581,0.553,��,1.7,��
2022/04/19,00:20,0.552,0.812,0.527,0.986,0.691,0.341,0.581,0.553,��,2.0,��
2022/04/19,00:30,0.551,0.812,0.528,0.987,0.692,0.341,0.582,0.554,��쐼,1.7,��
2022/04/19,00:40,0.552,0.813,0.526,0.989,0.690,0.340,0.582,0.554,��쐼,1.4,��
2022/04/19,00:50,0.552,0.813,0.527,0.988,0.691,0.340,0.582,0.556,��,1.9,��
2022/04/19,01:00,0.554,0.812,0.526,0.989,0.692,0.339,0.582,0.555,��쐼,2.9,��
2022/04/19,01:10,0.553,0.811,0.528,0.986,0.692,0.337,0.583,0.553,��,3.2,��
2022/04/19,01:20,0.551,0.812,0.528,0.990,0.692,0.338,0.582,0.554,��쐼,3.1,��
2022/04/19,01:30,0.552,0.811,0.528,0.991,0.692,0.338,0.582,0.555,��,3.8,��
2022/04/19,01:40,0.553,0.812,0.527,0.988,0.694,0.339,0.584,0.554,��,3.2,��
2022/04/19,01:50,0.552,0.813,0.528,0.989,0.692,0.339,0.583,0.557,��,3.5,��
2022/04/19,02:00,0.551,0.814,0.527,0.992,0.694,0.342,0.583,0.555,��,3.2,��
2022/04/19,02:10,0.553,0.813,0.527,0.991,0.693,0.339,0.584,0.555,��,3.8,��
2022/04/19,02:20,0.553,0.814,0.527,0.992,0.694,0.339,0.583,0.556,��,2.0,��
2022/04/19,02:30,0.553,0.815,0.527,0.994,0.694,0.339,0.585,0.554,��,1.5,��
2022/04/19,02:40,0.554,0.814,0.527,0.991,0.695,0.340,0.583,0.556,��,1.9,��
2022/04/19,02:50,0.552,0.815,0.527,0.994,0.694,0.339,0.584,0.556,��쐼,2.5,��
2022/04/19,03:00,0.555,0.815,0.527,0.994,0.696,0.340,0.583,0.556,��쐼,2.5,��
2022/04/19,03:10,0.553,0.814,0.527,0.993,0.697,0.339,0.584,0.556,��,2.0,��
2022/04/19,03:20,0.554,0.815,0.527,0.993,0.695,0.339,0.585,0.556,��,2.6,��
2022/04/19,03:30,0.551,0.817,0.527,0.995,0.696,0.340,0.585,0.556,��,1.7,��
2022/04/19,03:40,0.555,0.816,0.527,0.995,0.695,0.340,0.582,0.555,��,1.9,��
2022/04/19,03:50,0.554,0.814,0.528,0.997,0.697,0.340,0.585,0.555,��쐼,1.7,��
2022/04/19,04:00,0.554,0.816,0.530,0.995,0.696,0.340,0.585,0.555,��쐼,1.9,��
2022/04/19,04:10,0.555,0.815,0.528,0.997,0.698,0.340,0.586,0.554,�쐼,1.4,��
2022/04/19,04:20,0.554,0.816,0.528,0.996,0.699,0.340,0.585,0.554,��쐼,1.9,��
2022/04/19,04:30,0.555,0.817,0.528,0.995,0.696,0.340,0.584,0.556,��쐼,1.4,��
2022/04/19,04:40,0.554,0.816,0.528,0.998,0.695,0.339,0.584,0.556,��쐼,0.9,��
2022/04/19,04:50,0.554,0.816,0.529,0.996,0.697,0.339,0.584,0.556,�쐼,1.2,��
2022/04/19,05:00,0.556,0.814,0.527,0.995,0.698,0.341,0.584,0.555,�쐼,1.2,��
2022/04/19,05:10,0.556,0.816,0.529,0.997,0.697,0.340,0.585,0.555,�쐼,0.9,��
2022/04/19,05:20,0.557,0.816,0.526,0.996,0.699,0.339,0.584,0.556,��쐼,1.4,��
2022/04/19,05:30,0.554,0.816,0.528,0.999,0.699,0.341,0.584,0.557,���쐼,1.7,��
2022/04/19,05:40,0.555,0.816,0.528,0.998,0.699,0.340,0.584,0.555,�쐼,1.7,��
2022/04/19,05:50,0.555,0.818,0.529,0.999,0.699,0.342,0.585,0.557,��,1.5,��
2022/04/19,06:00,0.555,0.817,0.531,1.001,0.697,0.340,0.585,0.555,���k��,3.9,��
2022/04/19,06:10,0.557,0.816,0.529,0.998,0.699,0.340,0.585,0.556,�k��,4.6,��
2022/04/19,06:20,0.556,0.818,0.527,0.998,0.700,0.340,0.585,0.555,�k��,5.1,��
2022/04/19,06:30,0.555,0.817,0.529,1.000,0.700,0.340,0.586,0.555,�k��,7.4,��
2022/04/19,06:40,0.555,0.820,0.530,1.000,0.699,0.341,0.586,0.557,�k��,6.0,��
2022/04/19,06:50,0.554,0.820,0.529,1.001,0.699,0.341,0.586,0.556,�k��,6.1,��
2022/04/19,07:00,0.556,0.820,0.529,0.999,0.699,0.341,0.587,0.555,�k�k��,4.9,��
2022/04/19,07:10,0.556,0.820,0.529,1.001,0.699,0.342,0.585,0.556,�k�k��,4.0,��
2022/04/19,07:20,0.557,0.821,0.530,1.001,0.700,0.340,0.587,0.556,�k�k��,3.5,��
2022/04/19,07:30,0.557,0.820,0.532,1.003,0.701,0.340,0.588,0.556,�k,3.6,��
2022/04/19,07:40,0.559,0.820,0.529,1.001,0.701,0.341,0.587,0.556,�k�k��,2.2,��
2022/04/19,07:50,0.558,0.818,0.530,1.001,0.700,0.338,0.587,0.558,�k�k��,2.3,��
2022/04/19,08:00,0.559,0.819,0.531,1.000,0.701,0.338,0.588,0.558,�k,1.5,��
2022/04/19,08:10,0.558,0.819,0.532,1.005,0.703,0.341,0.588,0.559,�k��,1.4,��
2022/04/19,08:20,0.559,0.818,0.531,1.003,0.703,0.340,0.588,0.556,�k�k��,2.9,��
2022/04/19,08:30,0.561,0.817,0.531,1.004,0.701,0.341,0.586,0.558,�k�k��,2.5,��
2022/04/19,08:40,0.561,0.820,0.531,1.001,0.701,0.340,0.587,0.556,�k�k��,3.5,��
2022/04/19,08:50,0.562,0.820,0.530,1.002,0.704,0.341,0.587,0.556,�k��,4.1,��
2022/04/19,09:00,0.560,0.821,0.531,1.002,0.703,0.341,0.585,0.557,�k�k��,4.7,��
2022/04/19,09:10,0.562,0.820,0.533,1.002,0.707,0.340,0.588,0.556,�k�k��,4.7,��
2022/04/19,09:20,0.560,0.820,0.532,1.005,0.704,0.340,0.587,0.555,�k�k��,3.9,��
2022/04/19,09:30,0.560,0.822,0.533,1.004,0.705,0.341,0.587,0.555,�k�k��,3.1,��
2022/04/19,09:40,0.560,0.823,0.533,1.001,0.707,0.341,0.587,0.556,�k��,4.0,��
2022/04/19,09:50,0.560,0.821,0.534,1.003,0.706,0.341,0.588,0.554,�k�k��,4.2,��
2022/04/19,10:00,0.560,0.823,0.533,1.007,0.707,0.341,0.587,0.555,�k�k��,4.8,��
2022/04/19,10:10,0.560,0.823,0.533,1.005,0.706,0.342,0.589,0.555,�k�k��,4.8,��
2022/04/19,10:20,0.560,0.823,0.533,1.005,0.706,0.340,0.587,0.557,�k��,4.9,��
2022/04/19,10:30,0.560,0.823,0.534,1.008,0.708,0.341,0.588,0.557,�k�k��,5.0,��
2022/04/19,10:40,0.560,0.826,0.535,1.006,0.707,0.342,0.588,0.558,�k��,4.6,��
2022/04/19,10:50,0.562,0.824,0.534,1.007,0.708,0.340,0.588,0.557,�k��,6.2,��
2022/04/19,11:00,0.561,0.824,0.534,1.006,0.708,0.340,0.587,0.557,�k��,6.8,��
2022/04/19,11:10,0.560,0.827,0.534,1.008,0.709,0.341,0.588,0.557,�k��,7.0,��
2022/04/19,11:20,0.560,0.825,0.534,1.007,0.707,0.341,0.586,0.556,�k��,7.3,��
2022/04/19,11:30,0.561,0.826,0.533,1.006,0.707,0.339,0.586,0.556,�k�k��,4.7,��
2022/04/19,11:40,0.561,0.826,0.534,1.006,0.708,0.339,0.587,0.556,�k��,4.8,��
2022/04/19,11:50,0.558,0.827,0.536,1.009,0.707,0.340,0.588,0.558,�k�k��,4.4,��
2022/04/19,12:00,0.562,0.828,0.535,1.008,0.708,0.339,0.589,0.556,�k�k��,4.5,��
2022/04/19,12:10,0.562,0.831,0.534,1.008,0.710,0.341,0.587,0.557,�k��,3.2,��
2022/04/19,12:20,0.563,0.827,0.535,1.009,0.709,0.341,0.589,0.556,�k�k��,3.0,��
2022/04/19,12:30,0.560,0.829,0.535,1.007,0.710,0.342,0.589,0.558,�k�k��,3.0,��
2022/04/19,12:40,0.562,0.829,0.535,1.007,0.709,0.342,0.589,0.557,�k�k��,3.6,��
2022/04/19,12:50,0.563,0.829,0.534,1.008,0.710,0.342,0.588,0.558,�k�k��,4.0,��
2022/04/19,13:00,0.563,0.829,0.535,1.009,0.711,0.342,0.590,0.556,�k�k��,3.5,��
2022/04/19,13:10,0.562,0.830,0.534,1.010,0.713,0.343,0.589,0.557,�k��,3.9,��
2022/04/19,13:20,0.562,0.830,0.534,1.008,0.712,0.341,0.589,0.557,�k��,3.8,��
2022/04/19,13:30,0.560,0.829,0.536,1.009,0.712,0.343,0.590,0.556,�k��,4.3,��
2022/04/19,13:40,0.562,0.828,0.535,1.010,0.712,0.341,0.590,0.557,�k��,3.9,��
2022/04/19,13:50,0.561,0.831,0.533,1.009,0.710,0.341,0.590,0.558,�k��,3.7,��
2022/04/19,14:00,0.563,0.830,0.536,1.010,0.712,0.341,0.590,0.557,���k��,4.3,��
2022/04/19,14:10,0.561,0.829,0.536,1.009,0.714,0.341,0.590,0.559,�k��,4.2,��
2022/04/19,14:20,0.564,0.832,0.536,1.009,0.712,0.342,0.591,0.558,�k��,4.1,��
2022/04/19,14:30,0.563,0.835,0.536,1.010,0.713,0.342,0.591,0.558,�k��,4.7,��
2022/04/19,14:40,0.561,0.832,0.535,1.009,0.714,0.342,0.591,0.557,�k�k��,4.9,��
2022/04/19,14:50,0.563,0.832,0.536,1.009,0.713,0.341,0.591,0.559,�k��,4.0,��
2022/04/19,15:00,0.562,0.833,0.534,1.012,0.712,0.341,0.591,0.558,�k��,3.8,��
2022/04/19,15:10,0.562,0.832,0.536,1.011,0.712,0.342,0.589,0.558,�k��,4.5,��
2022/04/19,15:20,0.564,0.834,0.536,1.011,0.711,0.342,0.591,0.559,�k�k��,4.3,��
2022/04/19,15:30,0.563,0.832,0.537,1.010,0.713,0.343,0.591,0.558,�k�k��,4.8,��
2022/04/19,15:40,0.564,0.836,0.537,1.012,0.713,0.342,0.591,0.559,�k�k��,4.6,��
2022/04/19,15:50,0.564,0.836,0.538,1.012,0.713,0.343,0.591,0.559,�k�k��,4.5,��
2022/04/19,16:00,0.564,0.835,0.538,1.012,0.714,0.343,0.592,0.560,�k�k��,4.6,��
2022/04/19,16:10,0.565,0.837,0.538,1.012,0.711,0.343,0.591,0.559,�k�k��,4.7,��
2022/04/19,16:20,0.563,0.836,0.536,1.012,0.713,0.342,0.592,0.561,�k�k��,5.0,��
2022/04/19,16:30,0.565,0.836,0.537,1.012,0.713,0.342,0.593,0.562,�k,4.4,��
2022/04/19,16:40,0.565,0.836,0.539,1.011,0.714,0.342,0.591,0.561,�k�k��,4.1,��
2022/04/19,16:50,0.566,0.836,0.538,1.011,0.715,0.342,0.591,0.562,�k�k��,4.5,��
2022/04/19,17:00,0.565,0.838,0.538,1.010,0.713,0.343,0.590,0.562,�k,3.9,��
2022/04/19,17:10,0.566,0.836,0.539,1.013,0.715,0.342,0.591,0.561,�k�k��,3.8,��
2022/04/19,17:20,0.564,0.838,0.539,1.013,0.716,0.342,0.592,0.562,�k,3.9,��
2022/04/19,17:30,0.564,0.837,0.539,1.011,0.718,0.343,0.591,0.561,�k,3.7,��
2022/04/19,17:40,0.564,0.837,0.538,1.012,0.716,0.342,0.591,0.561,�k�k��,2.6,��
2022/04/19,17:50,0.564,0.836,0.538,1.014,0.715,0.343,0.592,0.561,�k,2.3,��
2022/04/19,18:00,0.566,0.836,0.540,1.012,0.716,0.342,0.591,0.561,�k,3.2,��
2022/04/19,18:10,0.565,0.835,0.539,1.012,0.714,0.341,0.591,0.561,�k,2.3,��
2022/04/19,18:20,0.565,0.834,0.536,1.011,0.717,0.342,0.595,0.561,�k,1.9,��
2022/04/19,18:30,0.563,0.835,0.538,1.014,0.717,0.343,0.594,0.562,�k,2.2,��
2022/04/19,18:40,0.563,0.834,0.537,1.013,0.715,0.342,0.593,0.560,�k,2.3,��
2022/04/19,18:50,0.565,0.835,0.537,1.012,0.715,0.342,0.594,0.559,�k�k��,2.9,��
2022/04/19,19:00,0.564,0.835,0.537,1.013,0.716,0.342,0.594,0.561,�k,3.6,��
2022/04/19,19:10,0.564,0.836,0.538,1.013,0.716,0.342,0.593,0.560,�k�k��,3.7,��
2022/04/19,19:20,0.563,0.836,0.538,1.011,0.715,0.342,0.593,0.561,�k,2.6,��
2022/04/19,19:30,0.565,0.835,0.537,1.013,0.716,0.341,0.593,0.560,�k�k��,2.6,��
2022/04/19,19:40,0.563,0.837,0.537,1.013,0.715,0.342,0.590,0.561,�k,2.2,��
2022/04/19,19:50,0.565,0.837,0.537,1.015,0.718,0.342,0.592,0.560,�k�k��,2.3,��
2022/04/19,20:00,0.563,0.835,0.537,1.013,0.717,0.342,0.592,0.559,�k�k��,2.0,��
2022/04/19,20:10,0.564,0.834,0.537,1.013,0.716,0.341,0.593,0.560,�k�k��,2.6,��
2022/04/19,20:20,0.564,0.835,0.537,1.014,0.716,0.343,0.592,0.561,�k�k��,3.0,��
2022/04/19,20:30,0.563,0.838,0.537,1.012,0.715,0.341,0.593,0.561,�k��,2.6,��
2022/04/19,20:40,0.565,0.836,0.537,1.013,0.716,0.342,0.592,0.560,�k��,2.0,��
2022/04/19,20:50,0.562,0.836,0.537,1.014,0.716,0.342,0.593,0.560,�k��,1.9,��
2022/04/19,21:00,0.564,0.835,0.537,1.011,0.718,0.341,0.593,0.561,�k��,1.7,��
2022/04/19,21:10,0.562,0.838,0.537,1.015,0.713,0.343,0.593,0.560,���k��,1.7,��
2022/04/19,21:20,0.563,0.834,0.537,1.012,0.718,0.341,0.591,0.560,���k��,1.1,��
2022/04/19,21:30,0.565,0.836,0.536,1.013,0.716,0.342,0.593,0.561,��,1.7,��
2022/04/19,21:40,0.564,0.836,0.538,1.012,0.715,0.341,0.595,0.561,���k��,1.7,��
2022/04/19,21:50,0.564,0.836,0.536,1.015,0.716,0.341,0.592,0.561,���k��,1.7,��
2022/04/19,22:00,0.564,0.834,0.537,1.013,0.716,0.341,0.592,0.562,���k��,1.4,��
2022/04/19,22:10,0.563,0.836,0.536,1.012,0.717,0.341,0.592,0.559,���k��,1.5,��
2022/04/19,22:20,0.563,0.835,0.537,1.014,0.715,0.342,0.592,0.561,�k��,1.4,��
2022/04/19,22:30,0.563,0.834,0.537,1.013,0.715,0.341,0.592,0.559,���k��,1.7,��
2022/04/19,22:40,0.564,0.836,0.536,1.012,0.716,0.341,0.592,0.560,�k��,1.2,��
2022/04/19,22:50,0.561,0.836,0.538,1.014,0.714,0.342,0.593,0.560,���k��,1.2,��
2022/04/19,23:00,0.564,0.836,0.537,1.015,0.718,0.340,0.591,0.559,�k��,1.4,��
2022/04/19,23:10,0.562,0.835,0.535,1.012,0.717,0.341,0.592,0.559,��,1.5,��
2022/04/19,23:20,0.562,0.837,0.535,1.014,0.715,0.342,0.593,0.560,���k��,1.2,��
2022/04/19,23:30,0.562,0.836,0.537,1.012,0.715,0.342,0.591,0.560,��,1.1,��
2022/04/19,23:40,0.563,0.836,0.537,1.014,0.716,0.342,0.592,0.561,���쐼,0.8,��
2022/04/19,23:50,0.562,0.838,0.536,1.014,0.715,0.340,0.592,0.560,���쐼,0.9,��
